www.pogodaiklimat.ru

Погода и климат >> Архив погоды >> ОАЭ >> Al Ain Int Airport


ПОГОДА в Al Ain Int Airport

  • Прогноз погоды в Al Ain Int Airport
  • Монитор погоды в Al Ain Int Airport
  • Климат города

АРХИВ ПОГОДЫ в Al Ain Int Airport

Время (UTC), дата Ветер
(напр.,м/с)
 
Видим.   Явления Облачность Т
(С)
Тd
(С)
f
(%)
Тe
(С)
Тes
(С)
Комфортность P
(гПа)
Po
(гПа)
Тmin
(С)
Tmax
(С)
R
(мм)
R24
(мм)
S
(см)
00 9.12 СВ 2 10 км ясно +17.3 +11.0 66 +18 +18 1016.9 985.9
03 9.12 СВ 1 10 км ясно +16.2 +10.1 67 +17 +17 1017.9 986.7
06 9.12 З 3 10 км ясно +22.4 +12.8 55 +25 +30 комфорт 1018.8 988.2 +16.0
09 9.12 СЗ 6 10 км ясно +26.6 +11.0 38 +28 +32 жарко 1016.5 986.4
12 9.12 СЗ 7 10 км 3/0
[Ac trans]
+27.1 +11.0 37 +28 +29 жарко 1015.0 985.0
15 9.12 СЗ 4 10 км ясно +23.3 +11.2 46 +26 +26 жарко 1016.4 986.0
18 9.12 З 2 10 км ясно +20.5 +12.1 59 +23 +23 комфорт 1017.3 986.6 +28.3
21 9.12 З 2 10 км ясно +18.7 +13.2 70 +20 +20 1016.8 985.9
00 10.12 В 2 10 км ясно +17.7 +13.3 75 +18 +18 1016.4 985.4
06 10.12 СЗ 2 10 км ясно +22.5 +15.2 63 +26 +33 жарко 1017.9 987.3 +16.8
09 10.12 СЗ 5 10 км 1/1 1200 м
[Cu hum]
+26.5 +13.8 46 +29 +34 жарко 1014.6 984.5
12 10.12 СЗ 8 10 км ясно +27.8 +12.0 38 +29 +29 жарко 1013.4 983.5
18 10.12 СЗ 1 10 км ясно +21.4 +14.2 64 +24 +24 комфорт 1016.5 985.9 +28.8
00 11.12 СВ 1 10 км ясно +18.1 +14.3 78 +19 +19 1016.6 985.7
03 11.12 В 3 9000 м мгла 1/0
[Ac trans]
+18.2 +14.7 80 +19 +19 1017.7 986.7
09 11.12 СЗ 7 9000 м мгла 1/0
[Ac trans]
+26.8 +15.4 50 +30 +33 душно 1016.0 986.0
12 11.12 СЗ 8 8000 м пыль ясно +27.7 +12.3 38 +29 +29 жарко 1015.0 985.1
15 11.12 СЗ 4 8000 м пыль ясно +23.3 +13.9 55 +27 +27 душно 1017.3 986.9
18 11.12 З 2 10 км ясно +20.5 +14.9 70 +24 +24 комфорт 1018.4 987.6 +28.6
21 11.12 В 2 10 км 4/4 800 м
[Sc]
+19.2 +15.3 78 +21 +21 комфорт 1018.6 987.7
00 12.12 З 2 10 км 1/1 800 м
[Sc]
+17.7 +14.8 83 +18 +18 1018.6 987.5
21 12.12 СЗ 2 10 км ясно +17.2 +14.0 81 +18 +18 1019.9 988.8
00 13.12 СВ 3 8000 м мгла ясно +15.6 +13.6 88 +15 +15 1020.1 988.8
09 13.12 Ю 4 10 км 3/3 1350 м
[Cu hum]
+25.1 +11.5 43 +27 +32 жарко 1019.9 989.6
15 13.12 З 2 10 км ясно +22.5 +5.6 33 +23 +23 комфорт 1020.0 989.4
18 13.12 С 3 10 км ясно +19.4 +14.3 72 +21 +21 комфорт 1021.2 990.3 +26.4
03 14.12 СВ 3 100 м туман ?/? +12.3 +11.8 97 +11 +11 1022.2 990.5
06 14.12 СВ 2 5000 м мгла {туман} ясно +19.6 +16.1 80 +22 +29 комфорт 1022.8 991.8 +12.3
09 14.12 Ю 4 10 км 3/3 1200 м
[Cu hum]
+25.8 +8.6 34 +26 +31 жарко 1019.6 989.4
15 14.12 З 4 10 км 3/0
[Ac trans]
+23.2 +8.7 40 +25 +25 комфорт 1020.2 989.7
18 14.12 С 6 10 км ясно +20.6 +14.3 67 +23 +23 комфорт 1021.2 990.4 +27.0
21 14.12 С 4 10 км ясно +18.4 +12.9 70 +19 +19 1020.3 989.3
00 15.12 СВ 2 10 км ясно +17.6 +13.2 75 +18 +18 1019.9 988.8
03 15.12 ЮВ 2 10 км ясно +18.4 +12.7 69 +19 +19 1021.2 990.2
12 15.12 СЗ 2 10 км 4/4 1050 м
[Sc diur, vesp Ac trans]
+26.6 +9.7 35 +27 +28 жарко 1018.3 988.1
15 15.12 С 4 10 км 3/1 1350 м
[Sc Ac trans]
+24.7 +9.2 37 +25 +25 комфорт 1019.7 989.3
18 15.12 СВ 3 10 км 3/3 1500 м
[Sc]
+21.7 +12.7 57 +24 +24 комфорт 1020.9 990.2 +27.3
21 15.12 В 3 10 км 3/3 2000 м
[Sc]
+21.2 +11.4 54 +23 +23 комфорт 1020.9 990.1

 

Местоположение метеостанции Al Ain Int Airport (ОАЭ): широта 24.27 долгота 55.60 высота над уровнем моря 262 м.

В архиве по умолчанию представлена погода в Al Ain Int Airport за последнюю неделю. Архивные данные за месяц целиком и за предыдущие месяцы, начиная с января 2011 года, Вы можете получить, выбрав интересующий диапазон дат из раскрывающегося списка и нажав кнопку "Ввод!".


*Определитесь, кто Вы:
робот инопланетянин человек

Внимание! Время в таблицах - всемирное. Для получения местного времени необходимо прибавить поправку, которая в Al Ain Int Airport равна 4 ч.

Смотрите также архив погоды в соседних городах и на ближайших метеорологических станциях:

Погода в Buraimi (Оман) (19 км)
Погода в Qumayra (Оман) (72 км)
Погода в Dubai Al Maktoum Int Airport (ОАЭ) (83 км)
Погода в Abu Dhabi (ОАЭ) (98 км)
Погода в Sohar Majis (Оман) (107 км)
Погода в Dubai (ОАЭ) (112 км)
Погода в Abu Dhabi Bateen Airport (ОАЭ) (117 км)
Погода в Fujairah (ОАЭ) (118 км)
Погода в Sharjah (ОАЭ) (118 км)
Погода в Ibri (Оман) (133 км)

Пояснения к столбцам:

Ветер - указаны скорость ветра в м/с - средняя за 10 мин, порывы в срок и между сроками (в фигурных скобках) и направление, откуда дует ветер: С - северный, СВ - северо-восточный, В - восточный, ЮВ - юго-восточный, Ю - южный, ЮЗ - юго-западный, З - западный, СЗ - северо-западный.
Видимость - горизонтальная дальность видимости в метрах или километрах. При видимости от 1 до 10 км при отсутствии осадков обычно наблюдается дымка, при ухудшении видимости до 1 км и менее - туман. В сухую погоду видимость может ухудшаться дымом, пылью или мглою.
Явления - указаны атмосферные явления, наблюдавшиеся в срок или в последний час перед сроком; фигурными скобками обозначены явления, наблюдавшиеся между сроками (за 1-3 часа до срока); квадратными скобками обозначены град или гололедные отложения с указанием их диаметра в мм.
Облачность - указаны через наклонную черту общая и нижняя облачность в баллах и высота нижней границы облаков в метрах; квадратными скобками обозначены формы облаков: Ci - перистые, Cs - перисто-слоистые, Cc - перисто-кучевые, Ac - высококучевые, As - высокослоистые, Sc - слоисто-кучевые, Ns - слоисто-дождевые, Cu - кучевые, Cb - кучево-дождевые. Подробнее классификацию облаков см. в Атласе облаков (PDF).
T - Температура воздуха - температура, измеренная на высоте 2 м над землей.
Td - Температура точки росы - температура, при понижении до которой содержащийся в воздухе водяной пар достигнет насыщения.
f - Относительная влажность воздуха - влажноcть воздуха, измеренная на высоте 2 м над землей.
Te - Эффективная температура - температура, которую ощущает одетый по сезону человек в тени. Характеристика душности погоды. При расчете учитывается влияние влажности воздуха и скорости ветра на теплоощущения человека.
Tes - Эффективная температура на солнце - температура, которую ощущает человек, с поправкой на солнечный нагрев. Характеристика знойности погоды. Зависит от высоты солнца над горизонтом, облачности и скорости ветра. Ночью, в пасмурную погоду, а также при ветре 12 м/с и более поправка равна нулю.
P - Атмосферное давление - приведенное к уровню моря атмосферное давление.
Po - Атмосферное давление - измеренное на уровне метеостанции атмосферное давление.
Tmin - Минимальная температура - минимум температуры воздуха на высоте 2 м над землей.
Tmax - Максимальная температура - максимум температуры воздуха на высоте 2 м над землей.
R - Количество осадков - Количество выпавших осадков за период времени, мм. При наведении курсора мыши на число - период времени, за который выпало указанное количество осадков.
R24 - Количество осадков - Количество выпавших осадков за 24 часа, мм.
S - Снежный покров - Высота снежного покрова, см. При наведении курсора мыши на число - состояние снежного покрова и степень покрытия местности в баллах.